This is the latest recevied weather packets stored in our database for station/object N3WMC. If no packets are shown the sender has not sent any weather packets the latest 10 day(s).
| Time | Temp. | Humidity | Pressure | Rain* | Wind** | Luminosity | Snow |
|---|---|---|---|---|---|---|---|
| 1787771482 | 27.22° C | 53% | 1017 hPa | 0 mm | - | 510 W/m² | - |
| 1787771181 | 27.22° C | 50% | 1017.4 hPa | 0 mm | - | 513 W/m² | - |
| 1787770877 | 27.78° C | 50% | 1017.2 hPa | 0 mm | - | 525 W/m² | - |
| 1787770575 | 27.78° C | 51% | 1017.1 hPa | 0 mm | - | 525 W/m² | - |
| 1787770270 | 27.78° C | 53% | 1017.3 hPa | 0 mm | - | 525 W/m² | - |
| 1787769969 | 27.78° C | 54% | 1017.5 hPa | 0 mm | - | 561 W/m² | - |
| 1787769664 | 26.67° C | 54% | 1017.7 hPa | 0 mm | - | 574 W/m² | - |
| 1787769362 | 26.11° C | 58% | 1017.4 hPa | 0 mm | - | 615 W/m² | - |
| 1787769058 | 26.11° C | 57% | 1017.5 hPa | 0 mm | - | 147 W/m² | - |
| 1787768753 | 27.22° C | 55% | 1017.6 hPa | 0 mm | - | 202 W/m² | - |
| 1787768449 | 27.22° C | 55% | 1017.6 hPa | 0 mm | - | 617 W/m² | - |
| 1787768144 | 27.22° C | 54% | 1017.9 hPa | 0 mm | - | 615 W/m² | - |
| 1787767840 | 26.67° C | 56% | 1018.1 hPa | 0 mm | - | 653 W/m² | - |
| 1787767535 | 26.11° C | 55% | 1017.8 hPa | 0 mm | - | 434 W/m² | - |
| 1787767234 | 26.67° C | 55% | 1017.8 hPa | 0 mm | - | 232 W/m² | - |
| 1787766927 | 26.67° C | 52% | 1017.9 hPa | 0 mm | - | 618 W/m² | - |
| 1787766622 | 27.22° C | 56% | 1018.2 hPa | 0 mm | - | 636 W/m² | - |
| 1787766320 | 26.67° C | 57% | 1018.2 hPa | 0 mm | - | 637 W/m² | - |
| 1787766015 | 27.22° C | 55% | 1017.9 hPa | 0 mm | - | 578 W/m² | - |
| 1787765712 | 27.22° C | 55% | 1018 hPa | 0 mm | - | 642 W/m² | - |
| 1787765408 | 27.22° C | 58% | 1018.1 hPa | 0 mm | - | 707 W/m² | - |
| 1787765107 | 26.67° C | 58% | 1018.4 hPa | 0 mm | - | 748 W/m² | - |
| 1787764802 | 27.22° C | 54% | 1018 hPa | 0 mm | - | 513 W/m² | - |
| 1787764497 | 26.67° C | 60% | 1018.2 hPa | 0 mm | - | 561 W/m² | - |
| 1787764192 | 26.11° C | 61% | 1018.4 hPa | 0 mm | - | 668 W/m² | - |
* Rain latest hour (hover to see other rain measurements)
** Current wind speed in m/s (hover to see current wind gust speed)